Tracking 25701 objects as of 3-Jul-2022
HD Live streaming from Space Station
objects crossing your sky now

STARLINK-2284

Track STARLINK-2284 now!
10-day predictions
STARLINK-2284 is classified as:


NORAD ID: 48016
Int'l Code: 2021-024AR
Perigee: 553.1 km
Apogee: 555.7 km
Inclination: 53.1 °
Period: 95.6 minutes
Semi major axis: 6925 km
RCS: Unknown
Launch date: March 24, 2021
Source: United States (US)
Launch site: AIR FORCE EASTERN TEST RANGE (AFETR)
aabbcc
Your satellite tracking list
Your tracking list is empty




NASA's NSSDC Master Catalog

Two Line Element Set (TLE):
1 48016U 21024AR  22183.40046103  .00000545  00000-0  55477-4 0  9998
2 48016  53.0547 175.5480 0001903  59.9990 300.1188 15.06394035 72825
Source of the keplerian elements: AFSPC